Location: Custaloga (historical)
(40.6706°N, 82.0727°W)
Time: 04:16:22
(UTC+00:00)

Daily predictions for brighter satellites

Satellite Brightness Start Highest point End
(mag) Time Altitude Azimuth Time Altitude Azimuth Time Altitude Azimuth
ISS -2.0 00:00:19 10° NW 00:02:04 26° NNW 00:02:04 26° NNW
Cosmos 2266 Rocket 4.0 00:00:12 10° N 00:06:31 61° E 00:12:51 10° SSE
SL-16 R/B 3.4 00:02:01 10° N 00:05:04 26° NNE 00:05:04 26° NNE
Cosmos 2082 Rocket 3.2 00:02:06 10° SW 00:07:32 45° WNW 00:11:58 15° N
ATLAS 5 CENTAUR R/B 3.7 00:05:27 10° NNW 00:08:17 21° N 00:08:17 21° N
Meteor 2-15 Rocket 4.3 00:06:48 10° S 00:12:53 71° E 00:15:51 32° NNE
Cosmos 1328 Rocket 4.3 00:12:34 10° SSW 00:16:54 52° W 00:19:19 24° NNW
CZ-2C R/B 3.2 00:17:25 10° SW 00:19:37 21° S 00:19:37 21° S
Meteor 1-27 Rocket 4.3 00:15:29 10° S 00:19:10 40° SSE 00:19:10 40° SSE
Cosmos 2278 3.8 00:15:29 10° NNW 00:21:11 73° WSW 00:26:49 10° SSE
Lacrosse 5 rocket 3.7 00:18:12 10° NNW 00:18:55 14° NNW 00:18:55 14° NNW
ARGOS 4.1 00:21:56 10° S 00:27:08 47° W 00:32:21 10° NNW
IRAS Rocket 4.2 00:28:34 68° SSE 00:28:34 68° SSE 00:33:29 10° S
COSMOS 2455 4.5 00:27:55 10° WSW 00:33:04 29° NW 00:36:35 17° N
Cosmos 1655 Rocket 4.2 00:32:44 10° NNW 00:39:07 72° W 00:45:25 10° S
DMSP B5D2-2 4.2 00:40:33 69° WNW 00:40:33 69° WNW 00:45:41 10° SSW
GEOS 3 Rocket 4.3 00:46:40 46° NW 00:46:40 46° NW 00:50:16 10° NW
CZ-4C R/B 3.8 01:09:54 10° NW 01:17:11 48° WSW 01:21:47 26° S
CENTAUR R/B 4.4 08:51:33 24° NE 08:51:33 24° NE 08:54:16 10° NE
Cosmos 2344 4.2 09:14:06 44° NNE 09:14:06 44° NNE 09:19:07 10° NNE
USA 238 DEB 4.0 09:40:07 55° NNE 09:40:07 55° NNE 09:45:21 10° NNE
USA 238 3.9 09:40:11 56° NNE 09:40:11 56° NNE 09:45:27 10° NNE
BREEZE-M DEB (TANK) 3.8 09:43:04 53° ENE 09:43:04 53° ENE 09:52:21 10° ESE
USA 215 4.3 09:43:13 10° E 09:48:56 34° NNE 09:50:35 30° N
Cosmos 921 Rocket 4.4 09:53:48 35° ENE 09:53:54 35° ENE 09:58:00 10° SE
Cosmos 1867 3.8 10:03:11 60° S 10:03:11 60° S 10:07:38 10° SSE
Cosmos 2208 Rocket 4.1 10:02:48 74° SSE 10:02:48 74° SSE 10:07:39 10° SSE
Cosmos 2369 Rocket 2.2 10:05:54 33° S 10:08:29 74° ESE 10:14:05 10° NNE
NOSS 3-3 (C) 4.5 10:11:46 47° NW 10:14:20 74° WSW 10:22:54 10° SSE
Cosmos 1486 Rocket 4.2 10:09:49 10° S 10:15:05 70° ESE 10:20:21 10° NNE
Cosmos 1656 Rocket 3.7 10:19:34 10° SSW 10:24:56 72° ESE 10:30:22 10° NNE
Iridium 2 4.0 10:22:20 10° S 10:26:05 64° E 10:26:47 51° NE
COSMO-SKYMED 1 3.0 10:28:15 10° SSE 10:32:31 62° ENE 10:35:30 19° N
Cosmos 1943 Rocket 3.4 10:35:16 25° NNW 10:35:16 25° NNW 10:38:14 10° N
CZ-2C R/B 2.9 10:28:31 10° SSE 10:33:59 70° ENE 10:39:21 10° N
CENTAUR R/B 3.3 10:38:46 31° NW 10:38:50 31° NW 10:45:03 10° NNE
Envisat 2.9 10:35:38 10° NNE 10:40:45 86° WNW 10:45:50 10° SSW
TSX-5 4.3 10:38:24 32° NNW 10:41:04 84° WSW 10:45:34 10° SSE
Cosmos 968 Rocket 4.2 10:45:20 33° NW 10:45:20 33° NW 10:48:54 10° N
Cosmos 2098 Rocket 2.8 10:41:22 10° SSW 10:45:07 74° W 10:49:55 10° N
DELTA 2 R/B (1) 3.7 10:47:13 30° WSW 10:49:57 68° SSE 10:55:28 10° E
Genesis I 3.8 10:52:06 40° WSW 10:52:06 40° WSW 10:55:50 10° S
Cosmos 2279 Rocket 3.9 10:48:10 10° N 10:54:23 90° W 11:00:35 10° S
SKYMED 3 4.4 10:52:18 10° S 10:56:37 71° WSW 10:59:53 17° NNW
NOSS 3-2 (C) 4.2 11:00:55 27° WNW 11:02:00 28° NW 11:07:30 10° NNE
Cosmos 1812 3.0 11:03:50 36° WNW 11:04:42 43° W 11:08:20 10° SSW
CBERS 1 LM4 rocket 4.4 11:01:28 10° N 11:06:16 60° WNW 11:11:14 10° SSW
MOS 1-B Rocket 4.3 11:00:46 10° S 11:06:54 46° W 11:12:27 10° NNW
Cosmos 1515 Rocket 4.2 11:02:41 10° N 11:07:00 55° E 11:11:14 10° SSE
ATLAS 3B R/B 3.8 11:00:58 10° S 11:07:03 45° ESE 11:13:24 10° NE
Cosmos 1354 Rocket 3.9 11:03:17 10° SSW 11:08:34 81° WNW 11:13:54 10° NNE
SJ 16-02 2.5 11:05:29 10° S 11:09:39 45° ESE 11:13:50 10° NNE
Cosmos 1634 Rocket 4.3 11:05:10 10° NNW 11:10:59 41° W 11:16:44 10° SSW
Meteor PRIRODA 4.2 11:08:26 10° NNE 11:12:01 58° E 11:15:35 10° S
ADEOS 3.5 11:09:41 10° NNE 11:14:56 83° WNW 11:20:09 10° SSW
CZ-4B R/B 4.4 11:11:36 10° N 11:15:50 44° WNW 11:20:04 10° SW
Landsat 5 3.7 11:13:11 10° S 11:17:37 55° W 11:22:01 10° NNW
Meteor 2-6 Rocket 4.1 11:12:43 10° NNW 11:18:02 58° W 11:23:17 10° S
CZ-4C R/B 2.6 11:16:40 10° S 11:19:47 62° W 11:22:18 15° NNW
SKYMED 2 4.1 11:16:37 10° SSW 11:20:38 37° W 11:24:07 13° NNW
SL-8 R/B 3.9 11:17:47 21° NW 11:20:55 64° NNE 11:25:39 10° ESE
ATLAS 5 CENTAUR R/B 1.8 11:17:24 10° SSW 11:21:05 60° ESE 11:25:09 10° NE
Cosmos 1500 Rocket 4.2 11:19:43 10° S 11:24:06 61° E 11:28:31 10° NNE
Meteor 1-31 Rocket 3.5 11:23:29 10° N 11:26:55 30° WNW 11:30:20 10° SW
CZ-2C R/B 3.0 11:22:41 10° NNE 11:27:37 87° ESE 11:32:44 10° SSW
Meteor 2-15 4.4 11:22:42 10° NNW 11:28:45 74° W 11:34:46 10° S
SJ-7 4.4 11:27:00 10° N 11:31:09 64° WNW 11:35:13 10° SSW
USA 215 3.3 11:24:55 10° SE 11:31:28 89° SW 11:37:55 10° NW
Cosmos 921 Rocket 4.4 11:30:39 18° WNW 11:31:55 20° W 11:35:08 10° SW
Cosmos 1833 4.3 11:27:48 10° NNW 11:33:25 61° WSW 11:39:03 10° S
H-2A R/B 4.2 11:31:49 10° NNW 11:34:45 17° WNW 11:36:47 10° WSW
Alouette 2 Rocket 4.2 11:34:00 10° N 11:37:35 47° ENE 11:41:05 10° SSE
H-2A R/B 2.3 11:33:53 10° SSE 11:38:06 71° ENE 11:42:27 10° N
Cosmos 1862 4.5 11:35:20 10° SW 11:38:22 21° WNW 11:41:25 10° NNW
Meteor 1-10 Rocket 4.3 11:33:32 10° NNW 11:38:55 53° W 11:44:17 10° S
Meteor 2-19 Rocket 4.4 11:34:01 10° SSW 11:40:00 65° W 11:46:02 10° N
Cosmos 1151 Rocket 4.4 11:42:46 10° NW 11:45:52 19° W 11:49:00 10° SW
H-2A R/B 3.7 11:42:16 10° NNE 11:46:47 36° E 11:51:17 10° SSE
Cosmos 2297 Rocket 4.2 11:46:18 10° N 11:50:50 24° NE 11:55:21 10° ESE
BREEZE-M DEB (TANK) 3.9 11:41:05 10° WNW 11:52:48 89° SSW 11:56:18 10° SE
Cosmos 2369 Rocket 3.5 11:49:26 10° W 11:53:08 18° NW 11:56:51 10° N
SL-27 R/B 2.6 11:51:33 10° NNW 11:55:05 56° WSW 11:58:31 10° S
